FW4339 Weather Reports


Display with metric or nautical units.
time (UTC)temp
F
wind
direction
speed
MPH
gust
MPH
rain 1hr
in
rain 24hr
in
rain mn
in
humidity
%
barometer
mb
20260502123033 54 0.0 0.0 0.00 0.02 0.02 51 1016.9
20260502121532 55 0.0 0.0 0.00 0.02 0.02 47 1016.9
20260502114529 55 0.0 0.0 0.00 0.02 0.02 46 1017.0
20260502113029 55 0.0 0.0 0.00 0.02 0.02 51 1017.1
20260502111529 55 0.0 0.0 0.00 0.02 0.02 50 1017.1
20260502110029 55 0.0 0.0 0.00 0.02 0.02 51 1017.3
20260502104528 56 0.0 0.0 0.00 0.02 0.02 49 1017.4
20260502103030 56 0.0 0.0 0.00 0.02 0.02 49 1017.3
20260502101535 55 0.0 0.0 0.00 0.02 0.02 53 1017.4
20260502091520 52 0.0 0.0 0.00 0.02 0.02 59 1017.8
20260502071509 50 40 0.0 0.0 0.01 0.02 0.02 74 1017.4
20260502070012 50 40 0.0 0.0 0.01 0.02 0.02 75 1017.3
20260502064522 50 40 0.0 0.0 0.00 0.02 0.02 72 1017.3
20260502063014 51 40 0.0 0.0 0.00 0.02 0.02 68 1017.3
20260502061513 51 0.0 0.0 0.00 0.02 0.02 69 1017.1
20260502060011 51 0.0 0.0 0.00 0.02 0.02 67 1017.1
20260502053008 51 40 0.0 0.0 0.00 0.02 0.02 64 1017.2
20260502051507 52 0.0 0.0 0.00 0.02 0.02 66 1017.4
20260502050012 52 0.0 0.0 0.00 0.02 0.02 66 1017.4
20260502044507 51 0.0 0.0 0.00 0.02 0.02 68 1017.5
20260502043001 51 0.0 0.0 0.00 0.02 0.02 69 1017.3
20260502041600 51 0.0 0.0 0.00 0.02 0.02 70 1017.1
20260502040106 51 0.0 0.0 0.00 0.02 0.02 70 1017.0
20260502034556 51 0.0 0.0 0.00 0.06 0.02 72 1016.9
20260502033055 51 0.0 0.0 0.00 0.06 0.02 72 1016.7
20260502031616 50 0.0 0.0 0.00 0.06 0.02 74 1016.5
20260502030054 50 0.0 0.0 0.00 0.06 0.02 75 1016.5
20260502024554 50 0.0 0.0 0.00 0.07 0.02 76 1016.6
20260502023056 50 0.0 0.0 0.00 0.07 0.02 77 1016.6
20260502021553 50 0.0 0.0 0.00 0.07 0.02 77 1016.6
20260502020108 50 0.0 0.0 0.00 0.07 0.02 78 1016.4
20260502014554 49 0.0 0.0 0.00 0.08 0.02 79 1016.4
20260502013053 49 0.0 0.0 0.00 0.08 0.02 80 1016.7
20260502011556 49 40 0.0 0.0 0.00 0.08 0.02 81 1016.6
20260502010052 49 40 0.0 0.0 0.00 0.08 0.02 82 1016.8
20260502004556 49 40 0.0 0.0 0.01 0.11 0.02 83 1016.8
20260502003054 49 40 0.0 0.0 0.02 0.11 0.02 84 1017.1
20260502001623 49 40 0.0 0.0 0.02 0.11 0.02 84 1017.2
20260502000045 49 40 0.0 0.0 0.02 0.11 0.02 84 1017.4
20260501234542 49 40 0.0 0.0 0.02 0.14 0.02 83 1017.5
20260501233044 50 40 0.0 0.0 0.00 0.13 0.00 81 1017.6
20260501231541 50 40 0.0 0.0 0.00 0.13 0.00 81 1017.7
20260501230039 50 40 0.0 0.0 0.00 0.13 0.00 80 1017.8
20260501224545 51 40 0.0 0.0 0.00 0.13 0.00 79 1018.1
20260501223030 52 40 0.0 0.0 0.00 0.13 0.00 75 1018.1
20260501221528 52 0.0 0.0 0.00 0.13 0.00 74 1018.2
20260501220027 52 0.0 0.0 0.00 0.13 0.00 73 1018.4
20260501214527 52 0.0 0.0 0.00 0.13 0.00 73 1018.3
20260501213028 52 0.0 0.0 0.00 0.13 0.00 73 1018.4
20260501211527 52 0.0 0.0 0.00 0.13 0.00 73 1018.4
20260501210032 52 0.0 0.0 0.00 0.13 0.00 73 1018.6
20260501204524 52 0.0 0.0 0.00 0.13 0.13 74 1018.5
20260501203025 52 0.0 0.0 0.00 0.13 0.13 74 1018.4
20260501201524 53 0.0 0.0 0.00 0.13 0.13 72 1018.5
20260501200023 53 0.0 0.0 0.00 0.13 0.13 70 1018.6
20260501194524 53 0.0 0.0 0.00 0.13 0.13 71 1018.6
20260501193023 53 0.0 0.0 0.00 0.13 0.13 72 1018.6
20260501191520 53 0.0 0.0 0.00 0.13 0.13 73 1018.5
20260501190020 53 0.0 0.0 0.00 0.13 0.13 73 1018.3
20260501184519 53 0.0 0.0 0.00 0.13 0.13 73 1018.2
20260501183031 53 0.0 0.0 0.00 0.13 0.13 74 1018.1
20260501181531 53 0.0 0.0 0.00 0.13 0.13 74 1018.1
20260501180038 53 0.0 0.0 0.00 0.13 0.13 74 1017.8
20260501174533 53 0.0 0.0 0.00 0.13 0.13 73 1017.8
20260501173024 53 0.0 0.0 0.00 0.13 0.13 73 1017.7
20260501171528 53 0.0 0.0 0.00 0.13 0.13 72 1017.9
20260501170026 53 0.0 0.0 0.00 0.13 0.13 72 1017.8
20260501164523 53 0.0 0.0 0.00 0.13 0.13 71 1017.5
20260501163020 53 0.0 0.0 0.00 0.13 0.13 71 1017.5
20260501161516 53 0.0 0.0 0.00 0.13 0.13 72 1017.6
20260501160017 53 0.0 0.0 0.00 0.13 0.13 72 1017.4
20260501154518 54 0.0 0.0 0.00 0.13 0.13 71 1017.6
20260501153018 54 0.0 0.0 0.00 0.13 0.13 71 1017.7
20260501151516 54 0.0 0.0 0.00 0.13 0.13 71 1017.8
20260501150027 54 0.0 0.0 0.00 0.13 0.13 72 1017.7
20260501144513 54 0.0 0.0 0.00 0.13 0.13 72 1017.7
20260501143013 54 0.0 0.0 0.00 0.13 0.13 72 1017.8
20260501141512 54 0.0 0.0 0.00 0.13 0.13 72 1017.9